Regional Weather Roundup
Issued by NWS Goodland, KS

Home | Current Version | Previous Version | Text Only | Print | Product List | Glossary Off
Versions: 1 2 3 4 5 6 7 8 9 10 11 12 13 14 15 16 17 18 19 20 21 22 23 24 25 26 27 28 29 30 31 32 33 34 35 36 37 38 39 40 41 42 43 44 45 46 47 48 49 50

000
ASUS43 KGLD 250059
RWRGLD

GOODLAND FORECAST AREA HOURLY WEATHER ROUNDUP
NATIONAL WEATHER SERVICE GOODLAND KS
700 PM MDT THU APR 24 2014

...OFFICIAL OBSERVATIONS...

CITY           SKY/WX    TMP DP  RH WIND       PRES   REMARKS
GOODLAND KS    CLEAR     63  18  17 W5        29.88S
HILL CITY KS   CLEAR     66  27  23 W5        29.86R
IMPERIAL NEB   CLEAR     66  16  14 N5        29.84R
MCCOOK NEB     CLEAR     65  17  15 W7        29.84R
AKRON CO       CLEAR     58  21  24 S8        29.88F
BURLINGTON CO  CLEAR     63  13  14 CALM      29.90S
LIMON CO       CLEAR     57  15  19 S8        29.91R
$$

...UNOFFICIAL OBSERVATIONS...

CITY           SKY/WX    TMP DP  RH WIND       PRES   REMARKS
COLBY KS       CLEAR     64  27  24 W5        29.88R
LENORA KS        N/A     65  32  29 NW5         N/A
LEOTI KS         N/A     68  32  26 CALM        N/A
NORTON KS      CLEAR     57  30  35 W5        29.83R
SHARON SPRINGS   N/A     66  24  20 CALM        N/A
WAKEENEY KS      N/A     66  27  23 MISG        N/A
TRENTON NEB      N/A     66  32  28 CALM        N/A
$$



USA.gov is the U.S. government's official web portal to all federal, state and local government web resources and services.